Regional Weather Roundup
Issued by NWS Bismarck, ND

Home | Current Version | Previous Version | Text Only | Print | Product List | Glossary On
Versions: 1 2 3 4 5 6 7 8 9 10 11 12 13 14 15 16 17 18 19 20 21 22 23 24 25 26 27 28 29 30 31 32 33 34 35 36 37 38 39 40 41 42 43 44 45 46 47 48 49 50
860
ASUS43 KBIS 221810
RWRBIS

NWR BROADCAST TEXT
NATIONAL WEATHER SERVICE BISMARCK ND
100 PM CDT MON MAY 22 2017

NOTE: "FAIR" INDICATES FEW OR NO CLOUDS BELOW 12,000 FEET WITH NO
SIGNIFICANT WEATHER AND/OR OBSTRUCTIONS TO VISIBILITY.


CITY           SKY/WX    TMP DP  RH WIND       PRES   REMARKS
WILLISTON      PTSUNNY   62  36  37 NE9       30.05S
MINOT          CLOUDY    59  37  44 N18G28    29.99S
MINOT AFB      LGT RAIN  56  40  55 N15G22    29.99S
BISMARCK       CLOUDY    61  34  36 N14G23    29.97S
DICKINSON      CLOUDY    57  33  40 N14       30.00R
GARRISON         N/A     58  35  42 N15G28    29.99R
HETTINGER ARPT FAIR      59  39  47 N17G26    30.01S
JAMESTOWN      PTSUNNY   59  41  51 N16G23    29.89S
HAZEN          MOCLDY    59  34  38 N17G24    30.02R
LINTON         MOCLDY    59  41  51 N14       29.96S
MANDAN         CLOUDY    57  34  41 N16G23    29.98R
STANLEY        FAIR      61  32  33 N17G24    30.04S
TIOGA          CLOUDY    59  32  36 N17       30.05S
WATFORD CITY   FAIR      63  34  34 N17       30.03F
$$

CITY           SKY/WX    TMP DP  RH WIND       PRES   REMARKS
GRAND FORKS    CLOUDY    54  45  71 N16       29.85S
GRAND FORKS AF PTSUNNY   53  42  67 N20G25    29.86R
DEVILS LAKE    CLOUDY    52  39  61 N18       29.91F
FARGO          PTSUNNY   57  41  55 NW17G28   29.85R
CAVALIER       LGT RAIN  50  45  81 N20       29.87R
GRAFTON        CLOUDY    50  45  81 N15       29.88R
GWINNER        MOCLDY    61  43  51 MISG      29.88S
LANGDON        CLOUDY    52  45  76 N22       29.89S
ROLLA          MOCLDY    54  34  47 N21       29.93S
$$

CITY           SKY/WX    TMP DP  RH WIND       PRES   REMARKS
ABERDEEN       CLOUDY    56  34  43 N8        29.91S
MOBRIDGE       CLOUDY    54  41  61 N13       29.94R
BUFFALO          N/A     51  43  74 N21G35    29.97R
RAPID CITY     LGT RAIN  53  43  68 NW22G30   30.02R
GLASGOW        PTSUNNY   64  38  38 N17G24    30.12F
SIDNEY         PTSUNNY   62  38  40 E10       30.05F
WOLF POINT     FAIR      66  38  35 N17       30.08F
GLENDIVE       CLOUDY    60  37  42 NE14G22   30.08R
MILES CITY     PTSUNNY   64  36  35 N15G33    30.10S
BAKER          FAIR      57  41  55 N17       30.07R
$$

CITY           SKY/WX    TMP DP  RH WIND       PRES   REMARKS
BILLINGS       LGT RAIN  58  41  53 NE9G26    30.19R
GREAT FALLS    CLOUDY    64  37  36 NE3       30.23F
REGINA         MOSUNNY   63  34  34 NE12G24   30.09S
ESTEVAN        PTSUNNY   64  34  32 N14G20    30.02S
$$





USA.gov is the U.S. government's official web portal to all federal, state and local government web resources and services.